SCP
0 0 0 0 0 0 0 0 0 0 0 0 0 0 0 0 0 0 0 0 0 0 0 0 0 0 0 0 1 1 1 1 1 0 1 1 1 1 1 0 0 0 0
0 0 0 0 0 0 0 0 0 0 -0 -0 0 0 0 0 0 0 0 0 0 0 0 0 0 0 0 0 0 1 1 1 1 1 1 1 1 1 1 0 0 0 0
0 0 0 0 0 0 0 0 0 -0 -0 -0 -0 0 0 0 0 0 0 0 0 0 0 0 0 0 0 0 0 0 1 1 1 1 1 1 1 1 1 0 0 0 0
0 0 0 0 0 0 0 0 0 -0 -0 -0 -0 -0 0 0 0 0 0 0 0 0 0 0 0 0 0 0 0 0 0 1 1 1 1 0 0 1 1 1 0 0 0
0 0 0 0 0 0 0 0 0 0 0 -0 -0 0 0 0 0 0 0 0 0 0 0 0 0 0 0 0 0 0 0 0 1 1 1 1 0 1 1 1 0 0 0
0 0 0 0 0 0 0 0 0 0 0 0 0 0 0 0 0 -0 -0 -0 0 -0 0 0 0 0 0 0 0 0 0 0 1 1 1 1 1 1 1 1 1 0 0
0 0 0 0 0 0 -0 -0 0 0 0 0 0 0 0 -0 -0 -0 -0 -0 0 0 0 -0 -0 -0 0 0 0 0 0 0 0 0 1 1 1 1 1 1 1 0 0
0 0 0 0 0 0 -0 0 0 0 0 0 0 0 0 0 0 0 0 0 0 0 0 0 0 0 0 0 0 0 0 0 0 0 1 1 1 1 1 2 2 1 0
0 0 0 0 0 0 -0 0 0 0 0 0 0 0 0 0 0 -0 0 0 0 0 0 0 0 0 0 -0 -0 0 0 0 0 0 0 1 0 1 1 1 1 1 1
0 0 0 0 0 0 -0 0 0 0 0 0 0 0 0 0 0 -0 -0 0 0 -0 -0 0 -0 0 -0 -0 -0 -0 -0 -0 0 0 0 0 1 1 1 1 2 1 1
0 0 0 0 0 0 0 0 0 0 0 0 0 0 0 0 0 0 0 -0 -0 -0 -0 -0 0 0 0 0 0 -0 -0 -0 -0 0 0 0 0 0 1 1 1 1 1
0 0 0 0 0 0 0 0 0 0 0 0 0 0 0 0 0 0 0 0 0 -0 0 0 0 0 0 0 0 0 0 0 0 0 0 0 0 0 0 1 1 1 1
0 0 0 0 0 0 0 0 0 0 0 0 0 0 0 0 0 0 0 0 0 0 0 0 0 0 0 0 0 0 0 0 -0 0 0 0 0 0 0 0 0 1 1
0 0 0 0 0 0 0 0 0 0 0 0 0 0 0 0 0 0 0 0 0 0 0 0 0 0 0 0 0 0 0 0 0 0 0 0 0 0 0 0 0 0 1
0 0 0 0 0 0 0 0 0 0 0 0 0 0 0 0 0 0 0 0 0 0 0 0 0 0 0 0 0 0 0 0 0 0 0 0 0 0 0 0 0 0 0
0 0 0 0 0 0 0 0 0 0 0 0 0 0 0 0 0 0 0 0 0 0 0 0 0 0 0 0 0 0 0 0 0 0 0 0 0 -0 0 0 0 0 0
0 0 0 0 0 0 0 0 0 0 0 0 0 0 0 0 0 0 0 0 0 0 0 0 0 0 0 0 0 0 0 -0 0 0 0 0 0 -0 -0 0 0 0 0
0 0 0 0 0 0 0 0 0 0 0 0 0 0 0 0 0 0 0 0 0 0 0 0 0 0 0 0 0 0 0 -0 0 0 -0 -0 -0 -0 -0 0 0 0 0
0 0 0 0 0 0 0 0 0 0 0 0 0 0 0 0 0 0 0 0 0 0 0 0 0 0 0 0 0 0 0 0 0 0 0 0 -0 -0 -0 0 0 0 0
0 0 0 0 0 0 0 0 0 0 0 0 0 0 0 0 0 0 0 0 0 0 0 0 0 -0 0 0 0 0 0 0 0 0 0 -0 -0 -0 -0 0 0 0 0
0 0 0 0 0 0 0 0 0 0 0 0 0 0 0 0 0 0 0 0 0 0 0 0 -0 -0 -0 0 0 0 0 0 0 0 0 0 -0 -0 -0 0 0 0 0
0 0 0 0 0 0 0 0 0 0 0 0 0 0 0 0 0 0 0 0 0 0 0 0 0 -0 -0 0 0 0 0 0 -0 0 -0 -0 -0 -0 -0 -0 0 0 0
0 0 0 0 0 0 0 0 0 0 0 0 0 0 0 0 0 0 0 0 0 -0 -0 -0 -0 -0 0 0 0 0 0 0 -0 -0 -0 -0 -0 -0 -0 0 0 0 0
0 0 0 0 0 0 0 0 0 0 0 0 0 0 0 0 0 0 0 0 0 0 0 0 0 -0 0 0 0 0 0 -0 0 -0 0 -0 -0 -0 -0 0 0 0 0
0 0 0 0 0 0 0 0 0 0 0 0 0 0 0 0 0 0 0 0 0 0 0 0 -0 -0 -0 -0 0 0 0 0 -0 -0 -0 -0 -0 -0 -0 0 0 0 0
0 0 0 0 0 0 0 0 0 0 0 0 0 0 0 0 0 0 0 0 0 0 0 0 0 0 0 0 0 0 0 -0 -0 -0 -0 -0 -0 -0 0 0 0 0 0
Wind_Speed_500mb
21 24 28 34 39 42 42 42 42 42 43 44 46 48 49 50 50 51 55 55 52 53 55 58 63 69 72 72 71 67 72 73 72 74 73 71 74 82 91 82 72 62 60
23 26 31 36 42 45 46 45 47 50 51 52 52 53 57 57 56 57 58 58 59 57 54 55 59 62 68 72 74 74 69 71 76 78 80 78 77 81 87 77 70 68 66
25 28 32 38 43 46 48 48 48 51 55 56 59 61 61 61 64 64 63 62 60 60 61 57 57 58 63 69 75 77 80 78 78 82 83 87 84 81 90 90 75 77 74
26 30 34 39 43 46 47 48 50 56 60 64 68 70 71 73 72 68 70 64 61 59 59 61 62 63 60 65 72 79 81 85 83 86 88 89 94 91 93 97 87 84 82
28 31 35 38 41 44 46 47 51 57 62 69 75 77 79 78 80 73 58 53 55 55 55 55 55 59 63 64 68 76 83 85 91 88 94 95 93 99 101 101 98 90 93
32 33 36 39 40 42 43 48 55 57 62 68 74 80 80 83 62 52 59 49 45 50 67 76 73 68 66 64 66 71 81 87 89 94 96 99 98 101 105 108 107 99 102
34 35 36 40 43 44 43 46 50 55 58 61 68 76 88 54 71 50 46 40 48 78 70 64 73 87 80 71 63 71 73 86 93 89 100 103 105 102 112 116 113 108 110
38 37 38 41 44 43 41 43 48 53 55 49 55 61 40 64 7 28 56 71 66 61 80 68 65 76 83 78 77 80 77 78 91 99 96 109 111 111 110 126 124 119 115
39 39 40 42 44 43 39 44 50 51 51 51 46 34 24 25 83 41 45 53 47 55 81 89 84 87 91 92 90 88 87 90 85 98 107 104 118 116 116 123 141 126 113
39 39 41 44 43 44 42 46 47 49 52 52 48 47 43 47 30 83 79 70 88 76 72 105 106 102 101 104 120 123 125 118 97 95 108 119 114 122 116 120 154 144 121
41 42 43 43 44 44 40 47 51 53 55 56 55 55 56 56 50 47 102 131 98 96 92 102 120 127 126 119 119 123 124 106 91 100 100 117 121 122 126 127 132 159 120
44 45 42 41 43 46 46 52 58 63 65 66 66 65 65 61 53 47 64 120 125 134 114 126 132 124 120 127 127 125 127 129 126 109 112 117 118 123 127 132 135 142 180
45 42 42 44 46 49 51 58 64 68 68 69 69 73 75 79 79 74 70 100 111 150 146 127 119 111 124 128 121 107 111 112 100 106 118 124 129 121 131 126 136 139 126
43 42 43 46 49 51 55 62 66 69 69 72 73 75 79 83 83 83 80 76 97 112 142 150 119 102 103 91 101 97 90 95 109 118 116 135 131 130 128 135 128 138 143
45 43 46 48 50 54 58 64 69 70 71 73 76 78 80 86 85 81 83 81 81 95 113 151 128 107 93 104 97 80 91 96 106 107 101 119 144 139 136 126 134 125 140
46 45 47 48 51 56 61 65 69 70 73 76 77 80 84 87 89 85 88 90 88 94 100 127 143 108 90 94 109 112 98 103 86 96 90 91 126 146 129 123 122 123 148
46 47 48 50 53 56 61 65 66 70 73 76 76 79 85 86 87 86 83 87 92 91 98 122 113 114 110 106 107 94 95 98 97 89 97 103 104 130 147 113 107 115 123
46 47 48 50 52 56 61 63 66 69 71 74 76 79 87 83 83 86 85 90 91 94 94 107 111 109 104 105 106 101 97 106 90 84 78 88 98 112 137 114 120 120 130
45 46 48 49 52 56 61 63 65 68 70 73 78 83 89 85 87 87 88 92 93 92 92 101 109 98 106 95 103 99 95 93 82 79 84 88 83 105 104 104 123 117 125
45 46 46 47 52 56 60 60 63 65 71 77 82 87 86 84 88 91 91 95 95 97 96 99 100 95 94 100 92 91 90 75 78 74 70 69 71 89 111 97 92 122 126
44 42 42 47 51 56 58 58 62 68 76 82 84 83 85 83 83 85 91 100 94 95 93 96 96 90 88 82 77 85 83 82 86 76 74 75 65 70 100 115 102 120 138
40 37 42 46 50 53 54 58 63 71 77 82 86 85 87 85 87 82 86 88 91 101 103 99 98 95 91 91 91 83 90 79 71 69 56 35 33 64 91 120 94 107 141
36 37 40 44 48 51 52 59 66 73 76 78 79 86 91 87 88 97 95 89 89 93 93 99 105 99 91 86 87 96 89 87 61 58 68 80 63 71 95 108 89 108 157
34 34 37 42 48 48 52 60 68 68 74 79 83 86 93 101 95 92 100 102 101 99 96 96 103 109 106 100 96 93 98 95 79 69 70 75 64 69 80 98 86 124 167
29 30 35 39 46 47 51 58 57 67 77 84 87 88 89 94 96 88 91 101 105 101 94 90 91 94 102 90 82 83 90 85 88 67 61 63 67 66 79 82 75 127 168
25 28 32 37 42 48 49 51 50 61 79 92 100 91 92 80 82 81 89 98 107 102 90 94 104 95 83 84 86 91 92 96 73 62 71 61 46 62 62 72 74 136 162
Wind_Direction_500mb
301 311 314 319 323 326 326 326 325 324 322 320 320 319 315 311 308 305 302 300 297 293 287 282 277 271 265 260 255 257 256 253 251 248 246 245 242 238 236 234 234 236 235
304 309 316 320 322 325 324 327 329 329 328 326 323 320 317 314 310 307 304 301 299 295 291 289 282 277 270 262 257 252 257 255 252 249 245 244 244 240 238 222 240 236 235
297 306 315 318 321 324 326 329 330 329 327 325 323 322 318 315 313 309 305 301 297 295 293 288 285 282 275 269 260 253 249 254 253 250 246 244 243 242 237 238 239 239 235
293 305 312 316 321 322 324 326 328 328 326 325 324 322 320 318 315 312 308 301 296 291 289 289 287 282 277 269 265 258 252 246 253 252 247 245 242 240 239 240 237 239 233
289 298 305 312 316 319 320 323 326 326 325 325 324 321 319 317 318 313 307 303 295 293 293 293 292 285 279 275 268 263 257 252 247 252 251 246 245 239 238 238 238 237 233
283 294 304 310 314 314 319 325 325 324 324 323 319 317 317 319 312 312 309 302 300 307 304 302 298 294 286 281 273 264 260 256 251 248 252 250 245 242 237 235 236 236 233
280 291 300 306 312 316 321 322 321 320 321 322 321 319 322 331 324 310 301 291 289 297 296 300 304 304 299 292 282 273 265 257 255 251 248 251 248 243 239 233 235 234 232
277 289 300 306 309 311 315 319 318 317 318 321 320 325 323 319 309 264 282 284 290 290 293 290 294 291 292 286 286 283 274 265 254 252 251 251 250 245 241 233 232 231 233
278 292 300 303 303 304 313 315 313 312 311 314 316 312 323 305 312 325 293 291 290 288 294 295 292 292 290 292 288 285 278 272 265 253 246 248 250 247 240 238 224 229 226
279 289 294 296 302 304 313 311 307 307 309 310 307 306 295 290 312 313 303 291 299 300 293 296 295 291 293 288 290 288 284 285 269 261 251 242 248 247 243 237 230 223 225
276 283 288 296 300 300 304 303 304 307 307 303 301 296 291 289 281 270 295 302 297 296 300 296 296 295 293 290 290 288 287 285 278 264 254 246 246 246 244 240 230 215 216
273 281 289 292 294 298 304 305 305 305 303 298 296 293 289 285 279 269 275 290 296 298 295 293 294 295 290 290 287 279 276 275 275 267 249 246 242 246 245 240 237 231 215
268 279 285 289 293 297 302 303 303 302 299 295 292 288 285 282 282 276 270 279 287 295 295 291 294 293 291 294 290 284 277 272 269 265 251 241 243 242 242 241 240 232 218
268 274 279 284 289 296 300 302 301 298 296 294 290 289 287 285 283 277 269 271 282 284 291 290 291 286 287 280 283 280 276 266 261 263 260 244 240 241 243 240 239 234 235
268 272 276 281 291 296 300 300 298 298 297 295 292 291 288 287 284 278 273 269 263 274 280 289 287 288 281 290 273 270 276 270 266 266 263 257 240 237 240 238 237 237 230
265 269 276 286 292 297 299 299 299 299 296 294 291 291 289 288 284 277 273 271 264 262 267 275 282 284 283 271 277 278 261 265 263 257 256 258 244 241 236 235 232 231 228
263 271 279 286 292 296 298 299 300 301 297 295 294 293 291 289 282 277 272 271 269 265 265 270 272 278 281 283 284 282 268 275 266 267 263 264 251 245 239 242 230 231 225
263 270 278 286 292 297 300 301 302 300 296 295 296 293 292 288 282 279 275 273 270 269 267 269 275 278 279 282 287 283 282 263 268 269 262 268 254 248 242 242 232 221 218
261 270 279 287 295 299 300 303 302 300 298 298 299 297 296 291 284 280 278 275 272 271 269 269 275 278 281 285 282 279 284 270 272 279 267 263 259 248 236 240 231 223 224
260 270 280 292 297 300 302 306 305 302 300 301 301 296 294 289 286 286 281 277 274 270 269 270 273 277 279 287 287 279 284 276 278 288 276 262 261 252 229 233 226 216 216
261 273 288 293 297 301 305 308 306 304 304 305 302 297 296 293 289 284 283 281 276 273 270 267 269 272 276 281 280 279 279 280 273 286 281 276 264 251 237 231 231 219 216
264 281 287 293 298 302 309 311 309 305 303 305 308 304 298 296 292 289 286 280 276 272 270 267 267 265 268 270 279 281 274 268 263 273 278 270 279 264 246 229 243 224 218
268 277 288 295 300 305 311 311 308 306 310 309 305 307 307 300 294 292 291 287 281 271 266 268 271 269 269 269 270 276 274 279 283 271 279 286 279 259 236 235 242 224 213
265 280 292 298 303 312 313 311 309 311 313 316 315 307 303 302 298 297 295 289 284 280 275 271 270 265 267 270 264 266 269 272 282 275 283 286 289 259 246 243 239 218 209
265 283 292 299 307 313 311 311 319 322 322 319 313 308 305 302 301 300 295 291 287 281 279 272 270 265 270 261 262 264 260 258 263 276 276 282 283 266 239 253 239 216 207
270 285 295 308 311 313 319 326 326 325 323 319 319 311 308 306 306 304 298 294 288 284 281 276 271 270 265 265 258 253 255 256 264 267 271 272 279 267 265 269 224 208 209
Wind_Speed_850mb
21 24 28 34 39 42 42 42 42 42 43 44 46 48 49 50 50 51 55 55 52 53 55 58 63 69 72 72 71 67 72 73 72 74 73 71 74 82 91 82 72 62 60
23 26 31 36 42 45 46 45 47 50 51 52 52 53 57 57 56 57 58 58 59 57 54 55 59 62 68 72 74 74 69 71 76 78 80 78 77 81 87 77 70 68 66
25 28 32 38 43 46 48 48 48 51 55 56 59 61 61 61 64 64 63 62 60 60 61 57 57 58 63 69 75 77 80 78 78 82 83 87 84 81 90 90 75 77 74
26 30 34 39 43 46 47 48 50 56 60 64 68 70 71 73 72 68 70 64 61 59 59 61 62 63 60 65 72 79 81 85 83 86 88 89 94 91 93 97 87 84 82
28 31 35 38 41 44 46 47 51 57 62 69 75 77 79 78 80 73 58 53 55 55 55 55 55 59 63 64 68 76 83 85 91 88 94 95 93 99 101 101 98 90 93
32 33 36 39 40 42 43 48 55 57 62 68 74 80 80 83 62 52 59 49 45 50 67 76 73 68 66 64 66 71 81 87 89 94 96 99 98 101 105 108 107 99 102
34 35 36 40 43 44 43 46 50 55 58 61 68 76 88 54 71 50 46 40 48 78 70 64 73 87 80 71 63 71 73 86 93 89 100 103 105 102 112 116 113 108 110
38 37 38 41 44 43 41 43 48 53 55 49 55 61 40 64 7 28 56 71 66 61 80 68 65 76 83 78 77 80 77 78 91 99 96 109 111 111 110 126 124 119 115
39 39 40 42 44 43 39 44 50 51 51 51 46 34 24 25 83 41 45 53 47 55 81 89 84 87 91 92 90 88 87 90 85 98 107 104 118 116 116 123 141 126 113
39 39 41 44 43 44 42 46 47 49 52 52 48 47 43 47 30 83 79 70 88 76 72 105 106 102 101 104 120 123 125 118 97 95 108 119 114 122 116 120 154 144 121
41 42 43 43 44 44 40 47 51 53 55 56 55 55 56 56 50 47 102 131 98 96 92 102 120 127 126 119 119 123 124 106 91 100 100 117 121 122 126 127 132 159 120
44 45 42 41 43 46 46 52 58 63 65 66 66 65 65 61 53 47 64 120 125 134 114 126 132 124 120 127 127 125 127 129 126 109 112 117 118 123 127 132 135 142 180
45 42 42 44 46 49 51 58 64 68 68 69 69 73 75 79 79 74 70 100 111 150 146 127 119 111 124 128 121 107 111 112 100 106 118 124 129 121 131 126 136 139 126
43 42 43 46 49 51 55 62 66 69 69 72 73 75 79 83 83 83 80 76 97 112 142 150 119 102 103 91 101 97 90 95 109 118 116 135 131 130 128 135 128 138 143
45 43 46 48 50 54 58 64 69 70 71 73 76 78 80 86 85 81 83 81 81 95 113 151 128 107 93 104 97 80 91 96 106 107 101 119 144 139 136 126 134 125 140
46 45 47 48 51 56 61 65 69 70 73 76 77 80 84 87 89 85 88 90 88 94 100 127 143 108 90 94 109 112 98 103 86 96 90 91 126 146 129 123 122 123 148
46 47 48 50 53 56 61 65 66 70 73 76 76 79 85 86 87 86 83 87 92 91 98 122 113 114 110 106 107 94 95 98 97 89 97 103 104 130 147 113 107 115 123
46 47 48 50 52 56 61 63 66 69 71 74 76 79 87 83 83 86 85 90 91 94 94 107 111 109 104 105 106 101 97 106 90 84 78 88 98 112 137 114 120 120 130
45 46 48 49 52 56 61 63 65 68 70 73 78 83 89 85 87 87 88 92 93 92 92 101 109 98 106 95 103 99 95 93 82 79 84 88 83 105 104 104 123 117 125
45 46 46 47 52 56 60 60 63 65 71 77 82 87 86 84 88 91 91 95 95 97 96 99 100 95 94 100 92 91 90 75 78 74 70 69 71 89 111 97 92 122 126
44 42 42 47 51 56 58 58 62 68 76 82 84 83 85 83 83 85 91 100 94 95 93 96 96 90 88 82 77 85 83 82 86 76 74 75 65 70 100 115 102 120 138
40 37 42 46 50 53 54 58 63 71 77 82 86 85 87 85 87 82 86 88 91 101 103 99 98 95 91 91 91 83 90 79 71 69 56 35 33 64 91 120 94 107 141
36 37 40 44 48 51 52 59 66 73 76 78 79 86 91 87 88 97 95 89 89 93 93 99 105 99 91 86 87 96 89 87 61 58 68 80 63 71 95 108 89 108 157
34 34 37 42 48 48 52 60 68 68 74 79 83 86 93 101 95 92 100 102 101 99 96 96 103 109 106 100 96 93 98 95 79 69 70 75 64 69 80 98 86 124 167
29 30 35 39 46 47 51 58 57 67 77 84 87 88 89 94 96 88 91 101 105 101 94 90 91 94 102 90 82 83 90 85 88 67 61 63 67 66 79 82 75 127 168
25 28 32 37 42 48 49 51 50 61 79 92 100 91 92 80 82 81 89 98 107 102 90 94 104 95 83 84 86 91 92 96 73 62 71 61 46 62 62 72 74 136 162
Wind_Direction_850mb
301 311 314 319 323 326 326 326 325 324 322 320 320 319 315 311 308 305 302 300 297 293 287 282 277 271 265 260 255 257 256 253 251 248 246 245 242 238 236 234 234 236 235
304 309 316 320 322 325 324 327 329 329 328 326 323 320 317 314 310 307 304 301 299 295 291 289 282 277 270 262 257 252 257 255 252 249 245 244 244 240 238 222 240 236 235
297 306 315 318 321 324 326 329 330 329 327 325 323 322 318 315 313 309 305 301 297 295 293 288 285 282 275 269 260 253 249 254 253 250 246 244 243 242 237 238 239 239 235
293 305 312 316 321 322 324 326 328 328 326 325 324 322 320 318 315 312 308 301 296 291 289 289 287 282 277 269 265 258 252 246 253 252 247 245 242 240 239 240 237 239 233
289 298 305 312 316 319 320 323 326 326 325 325 324 321 319 317 318 313 307 303 295 293 293 293 292 285 279 275 268 263 257 252 247 252 251 246 245 239 238 238 238 237 233
283 294 304 310 314 314 319 325 325 324 324 323 319 317 317 319 312 312 309 302 300 307 304 302 298 294 286 281 273 264 260 256 251 248 252 250 245 242 237 235 236 236 233
280 291 300 306 312 316 321 322 321 320 321 322 321 319 322 331 324 310 301 291 289 297 296 300 304 304 299 292 282 273 265 257 255 251 248 251 248 243 239 233 235 234 232
277 289 300 306 309 311 315 319 318 317 318 321 320 325 323 319 309 264 282 284 290 290 293 290 294 291 292 286 286 283 274 265 254 252 251 251 250 245 241 233 232 231 233
278 292 300 303 303 304 313 315 313 312 311 314 316 312 323 305 312 325 293 291 290 288 294 295 292 292 290 292 288 285 278 272 265 253 246 248 250 247 240 238 224 229 226
279 289 294 296 302 304 313 311 307 307 309 310 307 306 295 290 312 313 303 291 299 300 293 296 295 291 293 288 290 288 284 285 269 261 251 242 248 247 243 237 230 223 225
276 283 288 296 300 300 304 303 304 307 307 303 301 296 291 289 281 270 295 302 297 296 300 296 296 295 293 290 290 288 287 285 278 264 254 246 246 246 244 240 230 215 216
273 281 289 292 294 298 304 305 305 305 303 298 296 293 289 285 279 269 275 290 296 298 295 293 294 295 290 290 287 279 276 275 275 267 249 246 242 246 245 240 237 231 215
268 279 285 289 293 297 302 303 303 302 299 295 292 288 285 282 282 276 270 279 287 295 295 291 294 293 291 294 290 284 277 272 269 265 251 241 243 242 242 241 240 232 218
268 274 279 284 289 296 300 302 301 298 296 294 290 289 287 285 283 277 269 271 282 284 291 290 291 286 287 280 283 280 276 266 261 263 260 244 240 241 243 240 239 234 235
268 272 276 281 291 296 300 300 298 298 297 295 292 291 288 287 284 278 273 269 263 274 280 289 287 288 281 290 273 270 276 270 266 266 263 257 240 237 240 238 237 237 230
265 269 276 286 292 297 299 299 299 299 296 294 291 291 289 288 284 277 273 271 264 262 267 275 282 284 283 271 277 278 261 265 263 257 256 258 244 241 236 235 232 231 228
263 271 279 286 292 296 298 299 300 301 297 295 294 293 291 289 282 277 272 271 269 265 265 270 272 278 281 283 284 282 268 275 266 267 263 264 251 245 239 242 230 231 225
263 270 278 286 292 297 300 301 302 300 296 295 296 293 292 288 282 279 275 273 270 269 267 269 275 278 279 282 287 283 282 263 268 269 262 268 254 248 242 242 232 221 218
261 270 279 287 295 299 300 303 302 300 298 298 299 297 296 291 284 280 278 275 272 271 269 269 275 278 281 285 282 279 284 270 272 279 267 263 259 248 236 240 231 223 224
260 270 280 292 297 300 302 306 305 302 300 301 301 296 294 289 286 286 281 277 274 270 269 270 273 277 279 287 287 279 284 276 278 288 276 262 261 252 229 233 226 216 216
261 273 288 293 297 301 305 308 306 304 304 305 302 297 296 293 289 284 283 281 276 273 270 267 269 272 276 281 280 279 279 280 273 286 281 276 264 251 237 231 231 219 216
264 281 287 293 298 302 309 311 309 305 303 305 308 304 298 296 292 289 286 280 276 272 270 267 267 265 268 270 279 281 274 268 263 273 278 270 279 264 246 229 243 224 218
268 277 288 295 300 305 311 311 308 306 310 309 305 307 307 300 294 292 291 287 281 271 266 268 271 269 269 269 270 276 274 279 283 271 279 286 279 259 236 235 242 224 213
265 280 292 298 303 312 313 311 309 311 313 316 315 307 303 302 298 297 295 289 284 280 275 271 270 265 267 270 264 266 269 272 282 275 283 286 289 259 246 243 239 218 209
265 283 292 299 307 313 311 311 319 322 322 319 313 308 305 302 301 300 295 291 287 281 279 272 270 265 270 261 262 264 260 258 263 276 276 282 283 266 239 253 239 216 207
270 285 295 308 311 313 319 326 326 325 323 319 319 311 308 306 306 304 298 294 288 284 281 276 271 270 265 265 258 253 255 256 264 267 271 272 279 267 265 269 224 208 209